THOR 7

Last updated on Tue Oct 15 2024 00:02:40 GMT+0000 (Coordinated Universal Time)

1 40613U 15022A 24288.38382719 -.00000010 00000+0 00000+0 0 9999 2 40613 0.0164 144.5024 0002612 51.3371 325.1403 1.00270056 34699
UTC large
Height (km)
Speed (km/s)
/
Latitude / Longitude
Inclination (degrees)
Orbital Period (minutes)
Azimuth
Elevation
Range (km)
Doppler Factor

Next 0 passes for location: London (51.5072 / 0.1276)

Sorry there are no passes over London.